COSMOS 1275 DEB, 12708

Orbit data source: Space-Track

COSMOS 1275 DEB, 12708 is space debris in LEO originally from a launch on Thu, 04 Jun 1981 UTC launched from the Plesetsk Missile And Space Complex (PKMTR). Debris objects in space refer to the collection of defunct objects orbiting the Earth. Examples of debris include non-operational satellites, rocket bodies, and fragments generated from explosions, collisions, or faulty payload assembly.

Loading next visibility...
Identifier
12708, 1981-053BC
Orbit
LEO
Country
Flag of CISCIS
Related business
Manufacturer
Unknown
Mission
Spacecraft
Bus & Motor
Unknown
Mass
Unknown
Launch date (UTC)
1981-06-04 (45 years ago)
Launch vehicle
Unknown
Launch site
Plesetsk Missile And Space Complex (PKMTR)
Object type
Payload
Rocket body
Debris
Shape & HBR
Unknown shape, 0.2 m
Radar Cross Section
Small (<0.1 m²)

Expand to show TLE details & history
Last TLE update: 13 hours ago

TLE from 13 hours ago
0 COSMOS 1275 DEB
1 12708U 81053BC  26104.42348137  .00006442  00000-0  10307-2 0  9999
2 12708  82.8572  98.1114 0020995  30.5384 329.7043 14.71524164304510
Epoch: 2026-04-14T10:09Z
TLE epoch observation values (Epoch: 2026-04-14T10:09:48.790Z)
Latitude
Longitude
103.05817°
Altitude
646.492 km
Speed
7.541 km/s
True Right ascension
06h 32m 26s
True Declination
0° 00' 00"
Sunlit
Object was in daylight at epoch
Visualization orbit readout
Latitude
Unknown
Longitude
Unknown
Altitude
Unknown
Speed
Unknown
Apparent Right ascension
Unknown
Apparent Declination
Unknown
Sunlit
N/A
Visualization observer readout
Local Sidereal Time
05:58:20
Azimuth
Unknown
Elevation
Unknown
Doppler factor
Unknown
Orbital elements
Apogee altitude
667.989 km
Perigee altitude
638.464 km
Semi-major axis
7,031.364 km
Eccentricity
0.0021
Inclination
82.8572°
RAAN
98.1114°
Arg. of periapsis
30.5384°
True anomaly
329.58266°
Mean anomaly
329.7043°
Eccentric anomaly
329.64351°
Mean motion
3.68115 °/min
Orbital period
97.8 mins
BSTAR
0.0010307
Loading maneuver chart data...
Computing Atmospheric mass density...
Loading historical data...
Loading historical data...
Loading historical data...
Loading historical data...
Loading historical data...
Loading historical data...
Loading historical data...

Documentation

Showing up to 5 results
|